QPF
0.03 0.04 0.03 0.03 0.04 0.04 0.04 0.03 0.03 0.02 0.01 0.02 0.03 0.04 0.04 0.04 0.07 0.07 0.06 0.07 0.08 0.06 0.05 0.05 0.06 0.05 0.04 0.02 0.02 0.02 0.02 0.01 0.01 0.01 0.02 0.04 0.05 0.06
0.05 0.05 0.04 0.03 0.04 0.04 0.04 0.03 0.03 0.02 0.01 0.01 0.01 0.02 0.03 0.03 0.07 0.07 0.07 0.09 0.09 0.09 0.08 0.06 0.06 0.07 0.06 0.06 0.04 0.02 0.02 0.01 0.01 0.01 0.01 0.03 0.03 0.04
0.08 0.08 0.05 0.03 0.04 0.03 0.03 0.03 0.02 0.02 0.01 0.01 0.02 0.02 0.02 0.03 0.06 0.06 0.06 0.06 0.07 0.07 0.07 0.08 0.08 0.07 0.06 0.06 0.05 0.03 0.02 0.01 0.02 0.02 0.03 0.03 0.03 0.03
0.07 0.06 0.04 0.03 0.02 0.02 0.03 0.03 0.02 0.02 0.01 0.02 0.02 0.01 0.02 0.05 0.06 0.05 0.06 0.06 0.05 0.05 0.05 0.06 0.06 0.06 0.05 0.03 0.02 0.02 0.02 0.02 0.02 0.02 0.02 0.03 0.03 0.03
0.06 0.03 0.03 0.03 0.03 0.03 0.04 0.02 0.01 0.01 0.02 0.02 0.02 0.03 0.05 0.07 0.05 0.03 0.03 0.05 0.06 0.05 0.04 0.04 0.05 0.05 0.04 0.04 0.03 0.02 0.02 0.02 0.02 0.02 0.01 0.01 0.01 0.02
0.05 0.04 0.04 0.05 0.05 0.03 0.02 0.01 0.01 0.01 0.02 0.02 0.03 0.05 0.06 0.03 0.01 0.01 0.02 0.04 0.06 0.06 0.05 0.04 0.04 0.04 0.03 0.04 0.04 0.03 0.02 0.02 0.01 0.01 0.01 0.01 0.02 0.01
0.05 0.05 0.05 0.06 0.05 0.03 0.02 0.01 0.02 0.02 0.02 0.02 0.02 0.03 0.02 0.01 0.01 0.01 0.01 0.02 0.04 0.06 0.07 0.05 0.04 0.02 0.02 0.02 0.03 0.03 0.04 0.03 0.02 0.02 0.03 0.02 0.02 0.02
0.04 0.05 0.05 0.05 0.04 0.04 0.03 0.03 0.02 0.02 0.02 0.02 0.02 0.01 0.00 0.01 0.01 0.01 0.01 0.01 0.01 0.03 0.05 0.06 0.05 0.04 0.02 0.02 0.02 0.03 0.04 0.04 0.04 0.04 0.04 0.04 0.03 0.02
0.03 0.05 0.05 0.03 0.03 0.04 0.04 0.04 0.04 0.04 0.03 0.02 0.01 0.01 0.01 0.01 0.01 0.01 0.01 0.01 0.01 0.02 0.04 0.05 0.05 0.05 0.04 0.03 0.03 0.03 0.03 0.03 0.03 0.06 0.08 0.06 0.04 0.03
0.03 0.04 0.03 0.03 0.03 0.04 0.04 0.04 0.03 0.03 0.04 0.04 0.03 0.02 0.02 0.02 0.02 0.01 0.01 0.01 0.01 0.02 0.05 0.03 0.03 0.03 0.03 0.04 0.04 0.03 0.02 0.02 0.02 0.03 0.06 0.07 0.08 0.05
0.04 0.04 0.04 0.03 0.04 0.04 0.03 0.02 0.02 0.03 0.03 0.04 0.03 0.03 0.03 0.03 0.03 0.03 0.02 0.02 0.01 0.01 0.03 0.03 0.02 0.02 0.02 0.02 0.03 0.04 0.04 0.04 0.03 0.02 0.02 0.03 0.04 0.05
0.04 0.05 0.05 0.04 0.03 0.03 0.03 0.03 0.02 0.02 0.03 0.03 0.04 0.04 0.03 0.03 0.03 0.02 0.02 0.02 0.01 0.01 0.02 0.03 0.02 0.03 0.02 0.02 0.02 0.03 0.03 0.03 0.03 0.03 0.03 0.03 0.03 0.03
0.03 0.03 0.04 0.05 0.04 0.03 0.03 0.03 0.02 0.03 0.03 0.03 0.03 0.03 0.03 0.02 0.02 0.02 0.02 0.03 0.03 0.02 0.02 0.04 0.05 0.04 0.03 0.02 0.02 0.01 0.01 0.01 0.02 0.02 0.04 0.05 0.05 0.04
0.02 0.02 0.03 0.04 0.04 0.04 0.03 0.03 0.03 0.04 0.04 0.02 0.01 0.02 0.01 0.01 0.02 0.02 0.02 0.02 0.02 0.03 0.03 0.05 0.06 0.06 0.04 0.03 0.02 0.02 0.02 0.02 0.02 0.02 0.03 0.04 0.04 0.04
0.01 0.03 0.03 0.04 0.04 0.04 0.04 0.04 0.04 0.03 0.03 0.02 0.01 0.01 0.01 0.01 0.02 0.02 0.02 0.03 0.03 0.03 0.04 0.05 0.05 0.04 0.04 0.03 0.02 0.02 0.03 0.04 0.03 0.03 0.03 0.03 0.03 0.03
0.01 0.03 0.03 0.03 0.04 0.03 0.04 0.05 0.04 0.02 0.02 0.01 0.01 0.01 0.01 0.01 0.01 0.02 0.02 0.03 0.04 0.05 0.06 0.06 0.05 0.05 0.05 0.04 0.04 0.04 0.04 0.05 0.04 0.04 0.04 0.04 0.04 0.03
0.02 0.03 0.02 0.03 0.03 0.03 0.03 0.03 0.03 0.02 0.02 0.02 0.02 0.01 0.02 0.02 0.02 0.02 0.02 0.02 0.03 0.04 0.05 0.06 0.06 0.06 0.06 0.05 0.05 0.04 0.03 0.04 0.03 0.03 0.03 0.05 0.06 0.05
0.02 0.02 0.02 0.02 0.02 0.03 0.03 0.04 0.04 0.03 0.03 0.03 0.03 0.02 0.02 0.01 0.01 0.01 0.01 0.01 0.02 0.03 0.03 0.03 0.04 0.03 0.03 0.03 0.03 0.03 0.03 0.03 0.03 0.03 0.03 0.04 0.06 0.07
0.01 0.01 0.02 0.03 0.03 0.02 0.02 0.02 0.02 0.02 0.02 0.02 0.02 0.02 0.01 0.01 0.01 0.01 0.01 0.01 0.01 0.01 0.01 0.01 0.01 0.01 0.01 0.01 0.01 0.01 0.01 0.01 0.02 0.03 0.03 0.03 0.03 0.05
0.02 0.01 0.02 0.02 0.02 0.02 0.02 0.01 0.01 0.01 0.01 0.02 0.01 0.02 0.02 0.01 0.01 0.01 0.01 0.01 0.01 0.01 0.01 0.01 0.01 0.01 0.01 0.01 0.01 0.01 0.01 0.01 0.01 0.02 0.02 0.02 0.03 0.04
0.02 0.02 0.02 0.02 0.02 0.03 0.02 0.02 0.02 0.01 0.01 0.01 0.01 0.01 0.02 0.02 0.01 0.01 0.01 0.01 0.01 0.01 0.01 0.01 0.01 0.01 0.01 0.01 0.01 0.01 0.01 0.01 0.02 0.02 0.02 0.02 0.03 0.04
0.03 0.03 0.03 0.03 0.03 0.03 0.04 0.03 0.02 0.02 0.01 0.01 0.01 0.01 0.01 0.02 0.02 0.01 0.01 0.01 0.01 0.01 0.01 0.01 0.01 0.01 0.01 0.01 0.01 0.01 0.01 0.01 0.02 0.02 0.02 0.02 0.03 0.03
0.03 0.03 0.04 0.05 0.05 0.04 0.04 0.04 0.04 0.03 0.03 0.02 0.02 0.02 0.03 0.02 0.02 0.02 0.02 0.02 0.01 0.01 0.01 0.01 0.01 0.01 0.02 0.02 0.02 0.02 0.02 0.02 0.02 0.01 0.01 0.01 0.02 0.03
MSLP
1017.60 1017.66 1017.72 1017.78 1017.81 1017.81 1017.76 1017.66 1017.52 1017.37 1017.21 1017.06 1016.93 1016.84 1016.77 1016.74 1016.73 1016.75 1016.79 1016.85 1016.92 1017.01 1017.11 1017.21 1017.31 1017.41 1017.51 1017.59 1017.67 1017.73 1017.78 1017.82 1017.84 1017.84 1017.83 1017.81 1017.78 1017.76
1017.52 1017.58 1017.64 1017.69 1017.72 1017.71 1017.67 1017.59 1017.48 1017.36 1017.23 1017.11 1017.01 1016.92 1016.85 1016.79 1016.76 1016.73 1016.73 1016.76 1016.81 1016.89 1016.99 1017.12 1017.25 1017.39 1017.52 1017.64 1017.74 1017.82 1017.89 1017.94 1017.98 1018.01 1018.03 1018.05 1018.07 1018.09
1017.42 1017.48 1017.55 1017.60 1017.63 1017.63 1017.60 1017.55 1017.48 1017.39 1017.30 1017.21 1017.13 1017.04 1016.95 1016.86 1016.77 1016.69 1016.62 1016.58 1016.58 1016.63 1016.71 1016.83 1016.98 1017.15 1017.31 1017.46 1017.59 1017.70 1017.79 1017.87 1017.94 1018.01 1018.08 1018.15 1018.22 1018.30
1017.32 1017.39 1017.45 1017.50 1017.53 1017.54 1017.53 1017.51 1017.47 1017.42 1017.37 1017.31 1017.24 1017.16 1017.05 1016.92 1016.77 1016.62 1016.48 1016.36 1016.29 1016.28 1016.33 1016.43 1016.57 1016.75 1016.92 1017.10 1017.25 1017.39 1017.50 1017.61 1017.71 1017.82 1017.93 1018.06 1018.20 1018.34
1017.18 1017.25 1017.31 1017.36 1017.39 1017.40 1017.40 1017.40 1017.39 1017.37 1017.36 1017.33 1017.28 1017.20 1017.08 1016.92 1016.73 1016.52 1016.31 1016.12 1015.99 1015.92 1015.92 1015.99 1016.11 1016.27 1016.45 1016.62 1016.78 1016.92 1017.05 1017.17 1017.30 1017.44 1017.60 1017.79 1017.99 1018.19
1016.97 1017.04 1017.09 1017.12 1017.14 1017.15 1017.15 1017.16 1017.16 1017.17 1017.18 1017.18 1017.16 1017.10 1016.99 1016.82 1016.61 1016.37 1016.13 1015.90 1015.72 1015.61 1015.57 1015.60 1015.69 1015.82 1015.97 1016.12 1016.26 1016.38 1016.50 1016.62 1016.75 1016.91 1017.11 1017.34 1017.60 1017.86
1016.64 1016.69 1016.73 1016.75 1016.75 1016.74 1016.74 1016.73 1016.75 1016.77 1016.80 1016.83 1016.84 1016.81 1016.73 1016.60 1016.41 1016.18 1015.94 1015.71 1015.51 1015.38 1015.31 1015.30 1015.35 1015.44 1015.54 1015.65 1015.74 1015.83 1015.91 1016.00 1016.12 1016.29 1016.50 1016.76 1017.07 1017.39
1016.16 1016.19 1016.21 1016.21 1016.20 1016.17 1016.15 1016.13 1016.14 1016.17 1016.22 1016.27 1016.32 1016.33 1016.31 1016.22 1016.09 1015.92 1015.72 1015.52 1015.35 1015.21 1015.13 1015.10 1015.12 1015.16 1015.21 1015.25 1015.29 1015.31 1015.34 1015.39 1015.48 1015.63 1015.84 1016.12 1016.45 1016.82
1015.50 1015.53 1015.54 1015.54 1015.51 1015.47 1015.43 1015.40 1015.40 1015.42 1015.48 1015.55 1015.63 1015.70 1015.73 1015.72 1015.67 1015.57 1015.44 1015.31 1015.18 1015.08 1015.01 1014.96 1014.95 1014.95 1014.94 1014.92 1014.89 1014.86 1014.82 1014.82 1014.87 1014.99 1015.18 1015.46 1015.80 1016.20
1014.73 1014.76 1014.78 1014.78 1014.76 1014.71 1014.66 1014.62 1014.60 1014.62 1014.67 1014.76 1014.86 1014.97 1015.06 1015.12 1015.15 1015.14 1015.09 1015.03 1014.97 1014.91 1014.86 1014.82 1014.79 1014.75 1014.70 1014.63 1014.55 1014.45 1014.37 1014.32 1014.33 1014.41 1014.58 1014.85 1015.18 1015.58
1013.89 1013.95 1014.00 1014.02 1014.01 1013.98 1013.93 1013.88 1013.85 1013.86 1013.90 1013.98 1014.09 1014.22 1014.36 1014.47 1014.56 1014.63 1014.66 1014.67 1014.66 1014.64 1014.62 1014.60 1014.56 1014.51 1014.44 1014.34 1014.22 1014.09 1013.98 1013.90 1013.88 1013.93 1014.08 1014.31 1014.63 1015.00
1013.07 1013.17 1013.26 1013.32 1013.35 1013.34 1013.30 1013.25 1013.22 1013.21 1013.23 1013.30 1013.40 1013.54 1013.68 1013.83 1013.96 1014.07 1014.15 1014.21 1014.25 1014.27 1014.27 1014.27 1014.24 1014.19 1014.11 1014.01 1013.89 1013.76 1013.64 1013.55 1013.52 1013.56 1013.68 1013.88 1014.16 1014.49
1012.35 1012.49 1012.62 1012.73 1012.79 1012.81 1012.80 1012.76 1012.73 1012.70 1012.71 1012.76 1012.84 1012.96 1013.10 1013.24 1013.39 1013.51 1013.62 1013.70 1013.76 1013.81 1013.83 1013.84 1013.83 1013.79 1013.73 1013.65 1013.55 1013.44 1013.35 1013.28 1013.25 1013.28 1013.38 1013.55 1013.77 1014.05
1011.76 1011.93 1012.11 1012.25 1012.35 1012.41 1012.42 1012.40 1012.36 1012.33 1012.33 1012.35 1012.42 1012.51 1012.63 1012.76 1012.89 1013.01 1013.12 1013.21 1013.27 1013.32 1013.36 1013.38 1013.39 1013.37 1013.35 1013.30 1013.24 1013.17 1013.11 1013.07 1013.06 1013.09 1013.17 1013.30 1013.47 1013.67
1011.33 1011.52 1011.71 1011.88 1012.00 1012.08 1012.11 1012.11 1012.08 1012.06 1012.05 1012.06 1012.11 1012.19 1012.29 1012.41 1012.52 1012.63 1012.72 1012.80 1012.86 1012.91 1012.95 1012.98 1013.00 1013.01 1013.01 1013.00 1012.99 1012.97 1012.95 1012.94 1012.94 1012.97 1013.03 1013.11 1013.21 1013.33
1011.05 1011.23 1011.42 1011.59 1011.72 1011.80 1011.84 1011.85 1011.84 1011.83 1011.83 1011.85 1011.90 1011.98 1012.08 1012.19 1012.29 1012.39 1012.48 1012.55 1012.60 1012.65 1012.68 1012.71 1012.74 1012.77 1012.80 1012.82 1012.84 1012.85 1012.86 1012.87 1012.88 1012.89 1012.91 1012.93 1012.97 1013.00
1010.91 1011.06 1011.22 1011.36 1011.47 1011.55 1011.58 1011.60 1011.60 1011.60 1011.63 1011.67 1011.74 1011.84 1011.96 1012.08 1012.20 1012.31 1012.40 1012.47 1012.52 1012.56 1012.60 1012.63 1012.66 1012.70 1012.73 1012.77 1012.80 1012.82 1012.84 1012.84 1012.83 1012.81 1012.78 1012.75 1012.70 1012.65
1010.91 1011.01 1011.12 1011.21 1011.28 1011.32 1011.34 1011.35 1011.36 1011.38 1011.43 1011.50 1011.61 1011.75 1011.90 1012.05 1012.20 1012.34 1012.45 1012.54 1012.60 1012.65 1012.68 1012.71 1012.74 1012.77 1012.80 1012.82 1012.84 1012.85 1012.84 1012.81 1012.76 1012.69 1012.61 1012.50 1012.38 1012.26
1011.04 1011.09 1011.13 1011.16 1011.18 1011.17 1011.16 1011.14 1011.14 1011.17 1011.24 1011.34 1011.48 1011.66 1011.85 1012.05 1012.24 1012.40 1012.55 1012.66 1012.75 1012.81 1012.85 1012.88 1012.91 1012.92 1012.93 1012.93 1012.91 1012.88 1012.83 1012.74 1012.64 1012.50 1012.35 1012.17 1011.99 1011.80
1011.31 1011.31 1011.29 1011.26 1011.21 1011.15 1011.08 1011.03 1011.00 1011.02 1011.08 1011.20 1011.35 1011.55 1011.77 1012.00 1012.22 1012.43 1012.60 1012.75 1012.86 1012.94 1013.00 1013.03 1013.05 1013.05 1013.04 1013.00 1012.94 1012.85 1012.74 1012.59 1012.42 1012.21 1011.99 1011.75 1011.51 1011.28
1011.71 1011.68 1011.62 1011.53 1011.41 1011.29 1011.16 1011.05 1010.98 1010.96 1010.99 1011.08 1011.23 1011.42 1011.64 1011.88 1012.12 1012.34 1012.54 1012.71 1012.85 1012.95 1013.02 1013.07 1013.08 1013.08 1013.04 1012.97 1012.87 1012.72 1012.55 1012.34 1012.10 1011.83 1011.55 1011.26 1010.98 1010.72
1012.24 1012.19 1012.09 1011.96 1011.79 1011.60 1011.40 1011.23 1011.09 1011.01 1010.99 1011.02 1011.12 1011.28 1011.47 1011.68 1011.90 1012.12 1012.32 1012.50 1012.65 1012.77 1012.87 1012.93 1012.95 1012.94 1012.90 1012.80 1012.67 1012.49 1012.26 1011.99 1011.69 1011.37 1011.04 1010.72 1010.41 1010.14
1012.85 1012.80 1012.68 1012.51 1012.29 1012.05 1011.79 1011.55 1011.34 1011.18 1011.07 1011.03 1011.05 1011.13 1011.26 1011.42 1011.59 1011.78 1011.96 1012.14 1012.29 1012.43 1012.54 1012.62 1012.67 1012.67 1012.63 1012.53 1012.38 1012.16 1011.90 1011.59 1011.25 1010.89 1010.52 1010.17 1009.86 1009.59
Thickness
5716 5715 5713 5712 5711 5709 5708 5705 5701 5697 5699 5702 5705 5708 5708 5709 5710 5710 5711 5711 5711 5710 5710 5709 5709 5707 5706 5705 5705 5704 5704 5704 5704 5704 5704 5704 5703 5703
5713 5711 5710 5709 5708 5707 5706 5704 5702 5699 5697 5699 5700 5702 5703 5704 5705 5705 5706 5706 5706 5706 5705 5704 5704 5703 5701 5701 5700 5700 5700 5699 5699 5699 5700 5700 5699 5699
5710 5708 5706 5706 5704 5704 5702 5701 5699 5697 5694 5696 5696 5697 5697 5698 5699 5699 5700 5700 5701 5701 5701 5700 5699 5698 5697 5696 5695 5695 5695 5695 5695 5695 5695 5695 5695 5695
5706 5705 5704 5703 5701 5700 5699 5697 5696 5694 5692 5691 5692 5692 5692 5693 5693 5693 5694 5695 5695 5696 5696 5695 5694 5693 5692 5692 5691 5691 5691 5692 5692 5692 5692 5692 5692 5692
5705 5702 5700 5699 5697 5696 5695 5694 5693 5692 5690 5688 5688 5688 5687 5687 5686 5687 5687 5688 5689 5689 5690 5690 5689 5688 5687 5687 5687 5687 5687 5688 5688 5688 5688 5688 5688 5688
5701 5699 5697 5696 5695 5693 5692 5690 5689 5687 5685 5684 5683 5682 5681 5681 5680 5679 5679 5680 5681 5682 5683 5684 5684 5683 5683 5683 5683 5683 5683 5684 5684 5685 5685 5685 5684 5684
5697 5695 5694 5694 5692 5690 5689 5687 5685 5682 5680 5678 5677 5676 5675 5674 5674 5673 5672 5672 5673 5674 5675 5677 5677 5677 5677 5678 5678 5679 5679 5680 5681 5681 5681 5681 5680 5680
5692 5691 5690 5689 5688 5687 5685 5683 5681 5678 5676 5673 5672 5670 5670 5669 5668 5667 5666 5664 5665 5668 5668 5669 5671 5671 5673 5674 5675 5676 5676 5676 5677 5677 5677 5677 5676 5676
5687 5686 5685 5685 5682 5681 5679 5678 5676 5674 5673 5671 5668 5667 5666 5665 5663 5661 5660 5659 5660 5661 5660 5663 5665 5667 5669 5670 5671 5672 5672 5672 5673 5674 5673 5673 5672 5671
5683 5682 5680 5678 5677 5675 5673 5671 5669 5669 5668 5667 5666 5665 5664 5662 5659 5658 5656 5654 5654 5655 5655 5656 5660 5661 5664 5665 5667 5667 5668 5668 5668 5669 5669 5668 5668 5667
5678 5677 5675 5674 5672 5669 5666 5664 5663 5662 5662 5661 5661 5660 5658 5657 5654 5651 5649 5648 5649 5651 5651 5651 5654 5655 5658 5660 5662 5663 5664 5664 5664 5663 5663 5663 5663 5662
5673 5672 5670 5668 5666 5664 5661 5659 5657 5657 5656 5655 5653 5653 5652 5651 5650 5649 5647 5645 5644 5646 5648 5647 5649 5649 5651 5655 5656 5658 5658 5659 5658 5658 5658 5658 5657 5656
5667 5666 5665 5662 5660 5658 5656 5654 5653 5651 5649 5648 5647 5646 5646 5645 5645 5645 5644 5643 5642 5643 5644 5643 5644 5644 5644 5647 5649 5650 5651 5652 5652 5652 5652 5652 5651 5651
5661 5660 5659 5657 5654 5652 5650 5649 5647 5645 5643 5641 5640 5640 5640 5640 5640 5640 5640 5640 5640 5641 5641 5639 5639 5639 5639 5640 5642 5643 5644 5645 5646 5646 5646 5646 5645 5645
5655 5654 5652 5650 5648 5646 5645 5643 5641 5639 5637 5635 5635 5635 5635 5635 5634 5634 5634 5634 5634 5635 5635 5635 5634 5634 5634 5634 5636 5637 5637 5638 5639 5639 5640 5639 5640 5639
5647 5646 5645 5643 5642 5640 5639 5638 5636 5634 5632 5631 5630 5629 5629 5629 5628 5628 5628 5628 5628 5628 5628 5628 5628 5628 5629 5629 5630 5631 5632 5632 5633 5633 5633 5633 5633 5634
5639 5638 5637 5636 5635 5634 5633 5631 5630 5629 5627 5625 5624 5623 5623 5622 5622 5622 5622 5622 5622 5622 5622 5621 5621 5622 5623 5623 5624 5626 5626 5627 5628 5627 5627 5628 5629 5629
5631 5631 5631 5630 5629 5628 5627 5626 5625 5624 5622 5621 5619 5617 5616 5616 5615 5615 5615 5615 5616 5616 5616 5615 5615 5616 5616 5618 5619 5620 5621 5621 5622 5621 5621 5622 5624 5625
5626 5626 5625 5624 5623 5622 5621 5620 5619 5618 5616 5615 5614 5612 5611 5610 5609 5609 5608 5609 5609 5610 5610 5609 5609 5610 5611 5613 5616 5614 5615 5616 5616 5615 5616 5616 5618 5620
5621 5621 5620 5619 5617 5616 5615 5614 5614 5612 5611 5610 5609 5608 5606 5605 5604 5603 5603 5602 5603 5604 5604 5604 5604 5604 5605 5607 5608 5609 5609 5610 5610 5611 5611 5611 5612 5612
5617 5616 5615 5614 5612 5611 5610 5610 5609 5607 5606 5605 5604 5603 5602 5600 5599 5599 5598 5596 5596 5598 5599 5600 5601 5599 5599 5599 5600 5603 5604 5604 5606 5606 5606 5606 5606 5607
5613 5612 5611 5610 5608 5606 5605 5605 5604 5603 5602 5600 5599 5598 5597 5596 5595 5594 5594 5593 5592 5593 5594 5595 5594 5593 5592 5594 5597 5598 5598 5599 5599 5600 5600 5602 5602 5604
5609 5608 5607 5605 5604 5602 5601 5601 5600 5599 5598 5596 5595 5593 5592 5591 5591 5590 5589 5589 5588 5588 5588 5588 5588 5587 5588 5589 5590 5592 5592 5593 5594 5595 5596 5596 5597 5598